SV7RNH Weather Reports


Display with metric or nautical units.
time (UTC)temp
F
wind
direction
speed
MPH
gust
MPH
rain 1hr
in
rain 24hr
in
rain mn
in
humidity
%
barometer
mb
20260504215004 59 331 1.0 4.0 0.00 0.00 0.00 39 1018.4
20260504214503 59 0 0.0 4.0 0.00 0.00 0.00 39 1018.4
20260504214003 59 0 0.0 5.0 0.00 0.00 0.00 39 1018.4
20260504213504 59 82 2.0 5.0 0.00 0.00 0.00 39 1018.4
20260504213003 60 0 0.0 4.0 0.00 0.00 0.00 39 1018.3
20260504212503 60 221 1.0 4.0 0.00 0.00 0.00 39 1018.4
20260504212003 60 225 1.0 4.0 0.00 0.00 0.00 39 1018.3
20260504211504 60 225 1.0 4.0 0.00 0.00 0.00 39 1018.2
20260504211003 60 0 0.0 3.0 0.00 0.00 0.00 39 1018.2
20260504210503 60 199 1.0 3.0 0.00 0.00 0.00 39 1018.2
20260504210004 60 99 2.0 4.0 0.00 0.00 0.00 39 1018.2
20260504205504 60 287 1.0 4.0 0.00 0.00 0.00 39 1018.2
20260504205003 60 268 1.0 4.0 0.00 0.00 0.00 39 1018.2
20260504204503 60 0 0.0 3.0 0.00 0.00 0.00 38 1018.2
20260504204003 60 0 0.0 3.0 0.00 0.00 0.00 38 1018.2
20260504203504 60 0 0.0 4.0 0.00 0.00 0.00 38 1017.9
20260504203003 60 0 0.0 4.0 0.00 0.00 0.00 38 1018.1
20260504202503 60 0 0.0 3.0 0.00 0.00 0.00 38 1018.1
20260504202004 61 0 0.0 5.0 0.00 0.00 0.00 38 1018.2
20260504201504 61 237 1.0 5.0 0.00 0.00 0.00 37 1018.2
20260504201003 61 0 0.0 2.0 0.00 0.00 0.00 37 1018.3
20260504200503 61 0 0.0 2.0 0.00 0.00 0.00 37 1018.4
20260504200003 61 225 1.0 3.0 0.00 0.00 0.00 37 1018.4
20260504195504 61 225 1.0 3.0 0.00 0.00 0.00 37 1018.4
20260504195003 61 0 0.0 3.0 0.00 0.00 0.00 36 1018.3
20260504194503 62 342 1.0 4.0 0.00 0.00 0.00 36 1018.3
20260504194003 62 0 0.0 5.0 0.00 0.00 0.00 36 1018.2
20260504193504 62 38 1.0 5.0 0.00 0.00 0.00 36 1018.3
20260504193004 62 0 0.0 4.0 0.00 0.00 0.00 35 1018.2
20260504192504 62 0 0.0 4.0 0.00 0.00 0.00 35 1018.2
20260504192003 62 0 0.0 4.0 0.00 0.00 0.00 35 1018.2
20260504191503 62 0 0.0 3.0 0.00 0.00 0.00 34 1018.2
20260504191003 63 225 1.0 3.0 0.00 0.00 0.00 34 1018.3
20260504190504 63 0 0.0 4.0 0.00 0.00 0.00 34 1018.2
20260504190004 63 0 0.0 4.0 0.00 0.00 0.00 34 1018.2
20260504185503 63 0 0.0 2.0 0.00 0.00 0.00 33 1018.2
20260504185003 64 0 0.0 3.0 0.00 0.00 0.00 33 1018.2
20260504184503 64 225 1.0 3.0 0.00 0.00 0.00 33 1018.1
20260504184004 64 225 1.0 3.0 0.00 0.00 0.00 32 1018.0
20260504183503 64 225 1.0 3.0 0.00 0.00 0.00 32 1017.9
20260504183003 65 0 0.0 4.0 0.00 0.00 0.00 32 1017.9
20260504182503 65 0 0.0 4.0 0.00 0.00 0.00 31 1017.8
20260504182004 65 0 0.0 3.0 0.00 0.00 0.00 30 1017.8
20260504181503 66 0 0.0 3.0 0.00 0.00 0.00 29 1017.7
20260504181003 66 0 0.0 2.0 0.00 0.00 0.00 28 1017.7
20260504180504 66 0 0.0 3.0 0.00 0.00 0.00 27 1017.7
20260504180004 66 0 0.0 3.0 0.00 0.00 0.00 27 1017.6
20260504175503 66 67 1.0 3.0 0.00 0.00 0.00 27 1017.6
20260504175003 66 0 0.0 2.0 0.00 0.00 0.00 26 1017.6
20260504174504 66 0 0.0 2.0 0.00 0.00 0.00 26 1017.6
20260504174003 66 0 0.0 2.0 0.00 0.00 0.00 26 1017.7
20260504173503 66 0 0.0 2.0 0.00 0.00 0.00 26 1017.6
20260504173003 67 0 0.0 2.0 0.00 0.00 0.00 26 1017.6
20260504172504 67 121 1.0 2.0 0.00 0.00 0.00 26 1017.5
20260504172004 67 0 0.0 4.0 0.00 0.00 0.00 26 1017.6
20260504171503 67 0 0.0 4.0 0.00 0.00 0.00 27 1017.5
20260504171003 67 139 1.0 3.0 0.00 0.00 0.00 28 1017.7
20260504170503 67 0 0.0 4.0 0.00 0.00 0.00 27 1017.6
20260504151004 73 132 3.0 9.0 0.00 0.00 0.00 20 1018.0
20260504150503 73 149 2.0 7.0 0.00 0.00 0.00 22 1018.0
20260504141004 76 129 4.0 8.0 0.00 0.00 0.00 10 1018.0
20260504140504 77 139 1.0 10.0 0.00 0.00 0.00 10 1018.1
20260504130503 76 137 2.0 10.0 0.00 0.00 0.00 10 1018.8
20260504110503 75 242 2.0 7.0 0.00 0.00 0.00 10 1020.1
20260504100504 72 0 0.0 8.0 0.00 0.00 0.00 10 1020.2
20260504082003 66 229 2.0 7.0 0.00 0.00 0.00 14 1021.4
20260504081503 66 251 3.0 8.0 0.00 0.00 0.00 13 1021.4
20260504081003 66 267 3.0 8.0 0.00 0.00 0.00 13 1021.4
20260504080504 65 267 1.0 5.0 0.00 0.00 0.00 15 1021.4
20260504050504 58 0 0.0 3.0 0.00 0.02 0.00 28 1021.4
20260504050004 57 80 2.0 3.0 0.00 0.02 0.00 28 1021.3
20260504045503 57 0 0.0 2.0 0.00 0.02 0.00 30 1021.3
20260504045003 57 0 0.0 4.0 0.00 0.02 0.00 31 1021.4
20260504044504 56 0 0.0 4.0 0.00 0.02 0.00 32 1021.4
20260504044003 56 95 1.0 4.0 0.00 0.02 0.00 33 1021.3
20260504043503 55 0 0.0 4.0 0.00 0.02 0.00 35 1021.2
20260504043003 54 86 1.0 4.0 0.00 0.02 0.00 37 1021.2
20260504042504 53 80 1.0 4.0 0.00 0.02 0.00 39 1021.3
20260504042003 51 50 1.0 4.0 0.00 0.02 0.00 40 1021.2
20260504041503 51 21 1.0 4.0 0.00 0.02 0.00 41 1021.3
20260504041004 51 0 0.0 4.0 0.00 0.02 0.00 42 1021.2
20260504040503 50 346 1.0 4.0 0.00 0.02 0.00 43 1021.3
20260504040003 50 44 1.0 4.0 0.00 0.02 0.00 43 1021.3
20260504035503 50 65 2.0 4.0 0.00 0.02 0.00 43 1021.2
20260504035004 50 50 1.0 4.0 0.00 0.02 0.00 44 1021.2
20260504034504 50 31 1.0 4.0 0.00 0.02 0.00 44 1021.2
20260504034003 50 24 2.0 5.0 0.00 0.02 0.00 44 1021.1
20260504033503 50 22 2.0 5.0 0.00 0.02 0.00 45 1021.0
20260504033004 50 38 1.0 4.0 0.00 0.02 0.00 45 1021.2
20260504032504 50 35 2.0 4.0 0.00 0.02 0.00 45 1021.2
20260504032003 50 36 1.0 5.0 0.00 0.02 0.00 45 1021.2
20260504031503 50 41 2.0 6.0 0.00 0.02 0.00 44 1021.1
20260504031003 50 31 3.0 6.0 0.00 0.02 0.00 44 1021.0
20260504030503 50 36 1.0 6.0 0.00 0.02 0.00 44 1021.1
20260504030004 50 34 2.0 6.0 0.00 0.02 0.00 44 1021.0
20260504025503 50 25 1.0 7.0 0.00 0.02 0.00 44 1020.9
20260504025003 50 31 2.0 7.0 0.00 0.02 0.00 44 1021.1
20260504024503 50 313 2.0 7.0 0.00 0.02 0.00 44 1021.0
20260504024004 50 254 1.0 4.0 0.00 0.02 0.00 44 1021.1
20260504023504 50 238 1.0 4.0 0.00 0.02 0.00 44 1021.1
20260504023003 50 208 1.0 4.0 0.00 0.02 0.00 44 1021.2
20260504022503 50 207 2.0 4.0 0.00 0.02 0.00 45 1021.1
20260504022003 51 214 1.0 3.0 0.00 0.02 0.00 45 1021.0
20260504021504 51 206 1.0 3.0 0.00 0.02 0.00 45 1021.1
20260504021003 50 0 0.0 3.0 0.00 0.02 0.00 45 1021.1
20260504020503 50 222 1.0 3.0 0.00 0.02 0.00 45 1021.0
20260504020003 50 0 0.0 4.0 0.00 0.02 0.00 45 1020.9
20260504015503 51 215 1.0 4.0 0.00 0.02 0.00 45 1020.9
20260504015004 51 225 1.0 3.0 0.00 0.02 0.00 45 1021.0
20260504014503 51 0 0.0 3.0 0.00 0.02 0.00 45 1021.0